Tracking 30923 objects as of 1-Jul-2025
HD Live streaming from Space Station
objects crossing your sky now

STARLINK-5318

Track STARLINK-5318 now!
10-day predictions
STARLINK-5318 is classified as:


NORAD ID: 55304
Int'l Code: 2023-010AM
Perigee: 577.1 km
Apogee: 581.3 km
Inclination: 70.0 °
Period: 96.1 minutes
Semi major axis: 6950 km
RCS: Unknown
Launch date: January 19, 2023
Source: United States (US)
Launch site: AIR FORCE WESTERN TEST RANGE (AFWTR)
Your satellite tracking list
GALAXY 7
Track 1 satellite(s)




NASA's NSSDC Master Catalog

Two Line Element Set (TLE):
1 55304U 23010AM  25181.60222214  .00000119  00000-0  17781-4 0  9998
2 55304  69.9998 299.8640 0003061 269.4260  90.6548 14.98329552135511
Source of the keplerian elements: AFSPC